contact:dominique.lefevre@mio.osupytheas.fr, maurice.libes@osupytheas.fr, didier.mallarino@osupytheas.fr
Project:EMSO http://www.emso-fr.org/EMSO-France
Depth: 2436.0 m
Title:EMSO Ligure Ouest : Data MII capteur MICROCAT
DateTime_Computer,Latitude,Longitude,Temperature,Conductivity,Pressure,DateTime_Instrument
DateTime_Computer,Latitude,Longitude,degC,S m-1,dbar,DateTime_Instrument
2022-01-02T00:02:44Z,42.805,6.029,13.2995,4.60023,2470.297,2022-1-02T02:04:14Z
2022-01-02T00:05:47Z,42.805,6.029,13.3000,4.60023,2470.273,2022-1-02T02:07:17Z
2022-01-02T00:08:50Z,42.805,6.029,13.3001,4.60021,2470.297,2022-1-02T02:10:20Z
2022-01-02T00:11:53Z,42.805,6.029,13.2998,4.60021,2470.297,2022-1-02T02:13:23Z
2022-01-02T00:14:56Z,42.805,6.029,13.3002,4.60021,2470.297,2022-1-02T02:16:26Z
2022-01-02T00:17:59Z,42.805,6.029,13.2997,4.60024,2470.297,2022-1-02T02:19:29Z
2022-01-02T00:21:02Z,42.805,6.029,13.3002,4.60021,2470.273,2022-1-02T02:22:32Z
2022-01-02T00:24:06Z,42.805,6.029,13.2998,4.60021,2470.287,2022-1-02T02:25:35Z
2022-01-02T00:27:09Z,42.805,6.029,13.2999,4.60021,2470.25,2022-1-02T02:28:39Z
2022-01-02T00:30:12Z,42.805,6.029,13.2998,4.60022,2470.32,2022-1-02T02:31:42Z
2022-01-02T00:33:15Z,42.805,6.029,13.2998,4.60023,2470.287,2022-1-02T02:34:45Z
2022-01-02T00:36:18Z,42.805,6.029,13.2994,4.60022,2470.273,2022-1-02T02:37:48Z
2022-01-02T00:39:21Z,42.805,6.029,13.3000,4.60021,2470.25,2022-1-02T02:40:51Z
2022-01-02T00:42:24Z,42.805,6.029,13.2998,4.60022,2470.273,2022-1-02T02:43:54Z
2022-01-02T00:45:27Z,42.805,6.029,13.2998,4.60026,2470.273,2022-1-02T02:46:57Z
2022-01-02T00:48:31Z,42.805,6.029,13.2999,4.60021,2470.287,2022-1-02T02:50:00Z
2022-01-02T00:51:34Z,42.805,6.029,13.2997,4.60021,2470.273,2022-1-02T02:53:04Z
2022-01-02T00:54:37Z,42.805,6.029,13.2998,4.60023,2470.273,2022-1-02T02:56:07Z
2022-01-02T00:57:40Z,42.805,6.029,13.3001,4.60026,2470.273,2022-1-02T02:59:10Z
2022-01-02T01:00:43Z,42.805,6.029,13.3001,4.60022,2470.273,2022-1-02T03:02:13Z
2022-01-02T01:03:46Z,42.805,6.029,13.2999,4.60022,2470.273,2022-1-02T03:05:16Z
2022-01-02T01:06:49Z,42.805,6.029,13.2998,4.60025,2470.273,2022-1-02T03:08:19Z
2022-01-02T01:09:52Z,42.805,6.029,13.2998,4.60021,2470.297,2022-1-02T03:11:22Z
2022-01-02T01:12:55Z,42.805,6.029,13.2997,4.60024,2470.25,2022-1-02T03:14:25Z
2022-01-02T01:15:59Z,42.805,6.029,13.2998,4.60026,2470.31,2022-1-02T03:17:28Z
2022-01-02T01:19:02Z,42.805,6.029,13.2999,4.60023,2470.273,2022-1-02T03:20:32Z
2022-01-02T01:22:05Z,42.805,6.029,13.2998,4.60022,2470.25,2022-1-02T03:23:35Z
2022-01-02T01:25:08Z,42.805,6.029,13.2996,4.60022,2470.287,2022-1-02T03:26:38Z
2022-01-02T01:28:11Z,42.805,6.029,13.2998,4.60021,2470.31,2022-1-02T03:29:41Z
2022-01-02T01:31:14Z,42.805,6.029,13.3002,4.60022,2470.297,2022-1-02T03:32:44Z
2022-01-02T01:34:17Z,42.805,6.029,13.3002,4.60028,2470.31,2022-1-02T03:35:47Z
2022-01-02T01:37:20Z,42.805,6.029,13.2998,4.60022,2470.32,2022-1-02T03:38:50Z
2022-01-02T01:40:24Z,42.805,6.029,13.2997,4.60021,2470.297,2022-1-02T03:41:53Z
2022-01-02T01:43:27Z,42.805,6.029,13.2998,4.60024,2470.297,2022-1-02T03:44:57Z
2022-01-02T01:46:30Z,42.805,6.029,13.2997,4.60021,2470.297,2022-1-02T03:48:00Z
2022-01-02T01:49:33Z,42.805,6.029,13.2999,4.60023,2470.31,2022-1-02T03:51:03Z
2022-01-02T01:52:36Z,42.805,6.029,13.2996,4.60024,2470.297,2022-1-02T03:54:06Z
2022-01-02T01:55:39Z,42.805,6.029,13.2998,4.60022,2470.32,2022-1-02T03:57:09Z
2022-01-02T01:58:42Z,42.805,6.029,13.3000,4.60022,2470.334,2022-1-02T04:00:12Z
2022-01-02T02:01:45Z,42.805,6.029,13.3002,4.60022,2470.334,2022-1-02T04:03:15Z
2022-01-02T02:04:48Z,42.805,6.029,13.3003,4.60023,2470.32,2022-1-02T04:06:18Z
2022-01-02T02:07:52Z,42.805,6.029,13.3003,4.60024,2470.297,2022-1-02T04:09:21Z
2022-01-02T02:10:55Z,42.805,6.029,13.3001,4.60025,2470.297,2022-1-02T04:12:25Z
2022-01-02T02:13:58Z,42.805,6.029,13.2998,4.60026,2470.32,2022-1-02T04:15:28Z
2022-01-02T02:17:01Z,42.805,6.029,13.3000,4.60024,2470.32,2022-1-02T04:18:31Z
2022-01-02T02:20:04Z,42.805,6.029,13.3000,4.60023,2470.32,2022-1-02T04:21:34Z
2022-01-02T02:23:07Z,42.805,6.029,13.3004,4.60022,2470.334,2022-1-02T04:24:37Z
2022-01-02T02:26:10Z,42.805,6.029,13.2997,4.60025,2470.334,2022-1-02T04:27:40Z
2022-01-02T02:29:13Z,42.805,6.029,13.2999,4.60023,2470.357,2022-1-02T04:30:43Z
2022-01-02T02:32:17Z,42.805,6.029,13.2999,4.60024,2470.357,2022-1-02T04:33:46Z
2022-01-02T02:35:20Z,42.805,6.029,13.2998,4.60024,2470.357,2022-1-02T04:36:50Z
2022-01-02T02:38:23Z,42.805,6.029,13.3000,4.60024,2470.357,2022-1-02T04:39:53Z
2022-01-02T02:41:26Z,42.805,6.029,13.3003,4.60026,2470.357,2022-1-02T04:42:56Z
2022-01-02T02:44:29Z,42.805,6.029,13.3003,4.60024,2470.343,2022-1-02T04:45:59Z
2022-01-02T02:47:32Z,42.805,6.029,13.2997,4.60024,2470.357,2022-1-02T04:49:02Z
2022-01-02T02:50:35Z,42.805,6.029,13.2999,4.60024,2470.357,2022-1-02T04:52:05Z
2022-01-02T02:53:38Z,42.805,6.029,13.3001,4.60026,2470.366,2022-1-02T04:55:08Z
2022-01-02T02:56:41Z,42.805,6.029,13.2999,4.60024,2470.366,2022-1-02T04:58:11Z
2022-01-02T02:59:45Z,42.805,6.029,13.3001,4.60026,2470.366,2022-1-02T05:01:15Z
2022-01-02T03:02:48Z,42.805,6.029,13.3004,4.60027,2470.38,2022-1-02T05:04:18Z
2022-01-02T03:05:51Z,42.805,6.029,13.3005,4.60024,2470.366,2022-1-02T05:07:21Z
2022-01-02T03:08:54Z,42.805,6.029,13.2997,4.60023,2470.38,2022-1-02T05:10:24Z
2022-01-02T03:11:57Z,42.805,6.029,13.2999,4.60025,2470.39,2022-1-02T05:13:27Z
2022-01-02T03:15:00Z,42.805,6.029,13.3000,4.60026,2470.39,2022-1-02T05:16:30Z
2022-01-02T03:18:03Z,42.805,6.029,13.2998,4.60023,2470.413,2022-1-02T05:19:33Z
2022-01-02T03:21:06Z,42.805,6.029,13.2999,4.60025,2470.427,2022-1-02T05:22:36Z
2022-01-02T03:24:10Z,42.805,6.029,13.3001,4.60029,2470.413,2022-1-02T05:25:39Z
2022-01-02T03:27:13Z,42.805,6.029,13.3002,4.60024,2470.413,2022-1-02T05:28:43Z
2022-01-02T03:30:16Z,42.805,6.029,13.2996,4.60024,2470.413,2022-1-02T05:31:46Z
2022-01-02T03:33:19Z,42.805,6.029,13.3006,4.60026,2470.413,2022-1-02T05:34:49Z
2022-01-02T03:36:22Z,42.805,6.029,13.2997,4.60028,2470.45,2022-1-02T05:37:52Z
2022-01-02T03:39:25Z,42.805,6.029,13.3001,4.60028,2470.437,2022-1-02T05:40:55Z
2022-01-02T03:42:28Z,42.805,6.029,13.3000,4.60026,2470.474,2022-1-02T05:43:58Z
2022-01-02T03:45:31Z,42.805,6.029,13.2999,4.60028,2470.474,2022-1-02T05:47:01Z
2022-01-02T03:48:34Z,42.805,6.029,13.3006,4.60025,2470.437,2022-1-02T05:50:04Z
2022-01-02T03:51:38Z,42.805,6.029,13.3016,4.60037,2470.437,2022-1-02T05:53:08Z
2022-01-02T03:54:41Z,42.805,6.029,13.3014,4.60043,2470.46,2022-1-02T05:56:11Z
2022-01-02T03:57:44Z,42.805,6.029,13.3006,4.60033,2470.483,2022-1-02T05:59:14Z
2022-01-02T04:00:47Z,42.805,6.029,13.3002,4.60026,2470.497,2022-1-02T06:02:17Z
2022-01-02T04:03:50Z,42.805,6.029,13.2999,4.60024,2470.483,2022-1-02T06:05:20Z
2022-01-02T04:06:53Z,42.805,6.029,13.3001,4.60026,2470.52,2022-1-02T06:08:23Z
2022-01-02T04:09:56Z,42.805,6.029,13.3004,4.60025,2470.483,2022-1-02T06:11:26Z
2022-01-02T04:12:59Z,42.805,6.029,13.3003,4.60034,2470.497,2022-1-02T06:14:29Z
2022-01-02T04:16:03Z,42.805,6.029,13.3001,4.60029,2470.483,2022-1-02T06:17:32Z
2022-01-02T04:19:06Z,42.805,6.029,13.3002,4.60026,2470.507,2022-1-02T06:20:36Z
2022-01-02T04:22:09Z,42.805,6.029,13.2998,4.60024,2470.507,2022-1-02T06:23:39Z
2022-01-02T04:25:12Z,42.805,6.029,13.3004,4.60024,2470.497,2022-1-02T06:26:42Z
2022-01-02T04:28:15Z,42.805,6.029,13.2998,4.60025,2470.52,2022-1-02T06:29:45Z
2022-01-02T04:31:18Z,42.805,6.029,13.3000,4.60025,2470.507,2022-1-02T06:32:48Z
2022-01-02T04:34:21Z,42.805,6.029,13.3013,4.60032,2470.52,2022-1-02T06:35:51Z
2022-01-02T04:37:24Z,42.805,6.029,13.3005,4.60026,2470.53,2022-1-02T06:38:54Z
2022-01-02T04:40:28Z,42.805,6.029,13.2997,4.60025,2470.544,2022-1-02T06:41:57Z
2022-01-02T04:43:31Z,42.805,6.029,13.3004,4.60026,2470.507,2022-1-02T06:45:01Z
2022-01-02T04:46:34Z,42.805,6.029,13.2997,4.60028,2470.544,2022-1-02T06:48:04Z
2022-01-02T04:49:37Z,42.805,6.029,13.3000,4.60029,2470.544,2022-1-02T06:51:07Z
2022-01-02T04:52:40Z,42.805,6.029,13.3000,4.60025,2470.53,2022-1-02T06:54:10Z
2022-01-02T04:55:43Z,42.805,6.029,13.2998,4.60026,2470.53,2022-1-02T06:57:13Z
2022-01-02T04:58:46Z,42.805,6.029,13.3002,4.60027,2470.53,2022-1-02T07:00:16Z
2022-01-02T05:01:49Z,42.805,6.029,13.3000,4.60029,2470.53,2022-1-02T07:03:19Z
2022-01-02T05:04:52Z,42.805,6.029,13.3000,4.60029,2470.553,2022-1-02T07:06:22Z
2022-01-02T05:07:56Z,42.805,6.029,13.2999,4.60028,2470.567,2022-1-02T07:09:25Z
2022-01-02T05:10:59Z,42.805,6.029,13.3001,4.60027,2470.553,2022-1-02T07:12:29Z
2022-01-02T05:14:02Z,42.805,6.029,13.2996,4.60027,2470.553,2022-1-02T07:15:32Z
2022-01-02T05:17:05Z,42.805,6.029,13.3001,4.60028,2470.553,2022-1-02T07:18:35Z
2022-01-02T05:20:08Z,42.805,6.029,13.2998,4.60031,2470.553,2022-1-02T07:21:38Z
2022-01-02T05:23:11Z,42.805,6.029,13.3003,4.60027,2470.567,2022-1-02T07:24:41Z
2022-01-02T05:26:14Z,42.805,6.029,13.3000,4.60027,2470.6,2022-1-02T07:27:44Z
2022-01-02T05:29:17Z,42.805,6.029,13.2999,4.60028,2470.591,2022-1-02T07:30:47Z
2022-01-02T05:32:21Z,42.805,6.029,13.2998,4.60026,2470.567,2022-1-02T07:33:50Z
2022-01-02T05:35:24Z,42.805,6.029,13.3000,4.60026,2470.591,2022-1-02T07:36:54Z
2022-01-02T05:38:27Z,42.805,6.029,13.2998,4.60030,2470.577,2022-1-02T07:39:57Z
2022-01-02T05:41:30Z,42.805,6.029,13.2998,4.60029,2470.553,2022-1-02T07:43:00Z
2022-01-02T05:44:33Z,42.805,6.029,13.2999,4.60036,2470.553,2022-1-02T07:46:03Z
2022-01-02T05:47:36Z,42.805,6.029,13.3000,4.60031,2470.553,2022-1-02T07:49:06Z
2022-01-02T05:50:39Z,42.805,6.029,13.2996,4.60029,2470.577,2022-1-02T07:52:09Z
2022-01-02T05:53:42Z,42.805,6.029,13.3000,4.60029,2470.577,2022-1-02T07:55:12Z
2022-01-02T05:56:45Z,42.805,6.029,13.3001,4.60030,2470.6,2022-1-02T07:58:15Z
2022-01-02T05:59:49Z,42.805,6.029,13.3002,4.60031,2470.577,2022-1-02T08:01:19Z
2022-01-02T06:02:52Z,42.805,6.029,13.2997,4.60031,2470.577,2022-1-02T08:04:22Z
2022-01-02T06:05:55Z,42.805,6.029,13.2998,4.60029,2470.591,2022-1-02T08:07:25Z
2022-01-02T06:08:58Z,42.805,6.029,13.2998,4.60035,2470.591,2022-1-02T08:10:28Z
2022-01-02T06:12:01Z,42.805,6.029,13.3000,4.60036,2470.6,2022-1-02T08:13:31Z
2022-01-02T06:15:04Z,42.805,6.029,13.2998,4.60030,2470.6,2022-1-02T08:16:34Z
2022-01-02T06:18:07Z,42.805,6.029,13.2996,4.60032,2470.577,2022-1-02T08:19:37Z
2022-01-02T06:21:10Z,42.805,6.029,13.3000,4.60029,2470.577,2022-1-02T08:22:40Z
2022-01-02T06:24:14Z,42.805,6.029,13.3003,4.60026,2470.6,2022-1-02T08:25:43Z
2022-01-02T06:27:17Z,42.805,6.029,13.3000,4.60027,2470.624,2022-1-02T08:28:47Z
2022-01-02T06:30:20Z,42.805,6.029,13.2998,4.60029,2470.577,2022-1-02T08:31:50Z
2022-01-02T06:33:23Z,42.805,6.029,13.3000,4.60026,2470.591,2022-1-02T08:34:53Z
2022-01-02T06:36:26Z,42.805,6.029,13.2998,4.60032,2470.6,2022-1-02T08:37:56Z
2022-01-02T06:39:29Z,42.805,6.029,13.3001,4.60033,2470.6,2022-1-02T08:40:59Z
2022-01-02T06:42:32Z,42.805,6.029,13.3000,4.60028,2470.6,2022-1-02T08:44:02Z
2022-01-02T06:45:35Z,42.805,6.029,13.3001,4.60028,2470.577,2022-1-02T08:47:05Z
2022-01-02T06:48:39Z,42.805,6.029,13.3003,4.60026,2470.637,2022-1-02T08:50:08Z
2022-01-02T06:51:42Z,42.805,6.029,13.3000,4.60027,2470.577,2022-1-02T08:53:12Z
2022-01-02T06:54:45Z,42.805,6.029,13.3000,4.60026,2470.577,2022-1-02T08:56:15Z
2022-01-02T06:57:48Z,42.805,6.029,13.3002,4.60032,2470.6,2022-1-02T08:59:18Z
2022-01-02T07:00:51Z,42.805,6.029,13.2997,4.60029,2470.6,2022-1-02T09:02:21Z
2022-01-02T07:03:54Z,42.805,6.029,13.3003,4.60026,2470.577,2022-1-02T09:05:24Z
2022-01-02T07:06:57Z,42.805,6.029,13.3004,4.60027,2470.614,2022-1-02T09:08:27Z
2022-01-02T07:10:00Z,42.805,6.029,13.3002,4.60026,2470.577,2022-1-02T09:11:30Z
2022-01-02T07:13:03Z,42.805,6.029,13.3002,4.60027,2470.591,2022-1-02T09:14:33Z
2022-01-02T07:16:07Z,42.805,6.029,13.3004,4.60029,2470.591,2022-1-02T09:17:36Z
2022-01-02T07:19:10Z,42.805,6.029,13.2996,4.60027,2470.591,2022-1-02T09:20:40Z
2022-01-02T07:22:13Z,42.805,6.029,13.3001,4.60028,2470.614,2022-1-02T09:23:43Z
2022-01-02T07:25:16Z,42.805,6.029,13.3000,4.60029,2470.614,2022-1-02T09:26:46Z
2022-01-02T07:28:19Z,42.805,6.029,13.3001,4.60028,2470.553,2022-1-02T09:29:49Z
2022-01-02T07:31:22Z,42.805,6.029,13.3000,4.60026,2470.6,2022-1-02T09:32:52Z
2022-01-02T07:34:25Z,42.805,6.029,13.3000,4.60027,2470.577,2022-1-02T09:35:55Z
2022-01-02T07:37:28Z,42.805,6.029,13.3002,4.60026,2470.6,2022-1-02T09:38:58Z
2022-01-02T07:40:31Z,42.805,6.029,13.3000,4.60028,2470.591,2022-1-02T09:42:01Z
2022-01-02T07:43:35Z,42.805,6.029,13.3003,4.60027,2470.6,2022-1-02T09:45:05Z
2022-01-02T07:46:38Z,42.805,6.029,13.3004,4.60027,2470.6,2022-1-02T09:48:08Z
2022-01-02T07:49:41Z,42.805,6.029,13.2996,4.60027,2470.614,2022-1-02T09:51:11Z
2022-01-02T07:52:44Z,42.805,6.029,13.3000,4.60027,2470.614,2022-1-02T09:54:14Z
2022-01-02T07:55:47Z,42.805,6.029,13.3002,4.60026,2470.624,2022-1-02T09:57:17Z
2022-01-02T07:58:50Z,42.805,6.029,13.3000,4.60026,2470.577,2022-1-02T10:00:20Z
2022-01-02T08:01:53Z,42.805,6.029,13.2997,4.60026,2470.591,2022-1-02T10:03:23Z
2022-01-02T08:04:56Z,42.805,6.029,13.3003,4.60027,2470.577,2022-1-02T10:06:26Z
2022-01-02T08:08:00Z,42.805,6.029,13.3004,4.60026,2470.577,2022-1-02T10:09:30Z
2022-01-02T08:11:03Z,42.805,6.029,13.2999,4.60027,2470.577,2022-1-02T10:12:33Z
2022-01-02T08:14:06Z,42.805,6.029,13.2998,4.60027,2470.614,2022-1-02T10:15:36Z
2022-01-02T08:17:09Z,42.805,6.029,13.3001,4.60026,2470.6,2022-1-02T10:18:39Z
2022-01-02T08:20:12Z,42.805,6.029,13.2996,4.60026,2470.614,2022-1-02T10:21:42Z
2022-01-02T08:23:15Z,42.805,6.029,13.3003,4.60026,2470.6,2022-1-02T10:24:45Z
2022-01-02T08:26:18Z,42.805,6.029,13.3004,4.60037,2470.553,2022-1-02T10:27:48Z
2022-01-02T08:29:21Z,42.805,6.029,13.2999,4.60030,2470.577,2022-1-02T10:30:51Z
2022-01-02T08:32:25Z,42.805,6.029,13.3000,4.60031,2470.624,2022-1-02T10:33:55Z
2022-01-02T08:35:28Z,42.805,6.029,13.3001,4.60027,2470.577,2022-1-02T10:36:58Z
2022-01-02T08:38:31Z,42.805,6.029,13.3000,4.60028,2470.567,2022-1-02T10:40:01Z
2022-01-02T08:41:34Z,42.805,6.029,13.3001,4.60031,2470.567,2022-1-02T10:43:04Z
2022-01-02T08:44:37Z,42.805,6.029,13.3000,4.60029,2470.553,2022-1-02T10:46:07Z
2022-01-02T08:47:40Z,42.805,6.029,13.3000,4.60025,2470.591,2022-1-02T10:49:10Z
2022-01-02T08:50:43Z,42.805,6.029,13.3000,4.60028,2470.577,2022-1-02T10:52:13Z
2022-01-02T08:53:46Z,42.805,6.029,13.3001,4.60031,2470.53,2022-1-02T10:55:16Z
2022-01-02T08:56:50Z,42.805,6.029,13.3003,4.60026,2470.577,2022-1-02T10:58:20Z
2022-01-02T08:59:53Z,42.805,6.029,13.3000,4.60025,2470.577,2022-1-02T11:01:23Z
2022-01-02T09:02:56Z,42.805,6.029,13.3002,4.60026,2470.591,2022-1-02T11:04:26Z
2022-01-02T09:05:59Z,42.805,6.029,13.3002,4.60029,2470.577,2022-1-02T11:07:29Z
2022-01-02T09:09:02Z,42.805,6.029,13.3002,4.60027,2470.553,2022-1-02T11:10:32Z
2022-01-02T09:12:05Z,42.805,6.029,13.2999,4.60026,2470.591,2022-1-02T11:13:35Z
2022-01-02T09:15:08Z,42.805,6.029,13.3003,4.60025,2470.577,2022-1-02T11:16:38Z
2022-01-02T09:18:11Z,42.805,6.029,13.2998,4.60025,2470.563,2022-1-02T11:19:41Z
2022-01-02T09:21:15Z,42.805,6.029,13.3003,4.60027,2470.577,2022-1-02T11:22:44Z
2022-01-02T09:24:18Z,42.805,6.029,13.3003,4.60026,2470.6,2022-1-02T11:25:48Z
2022-01-02T09:27:21Z,42.805,6.029,13.3000,4.60025,2470.553,2022-1-02T11:28:51Z
2022-01-02T09:30:24Z,42.805,6.029,13.3000,4.60026,2470.567,2022-1-02T11:31:54Z
2022-01-02T09:33:27Z,42.805,6.029,13.3004,4.60026,2470.577,2022-1-02T11:34:57Z
2022-01-02T09:36:30Z,42.805,6.029,13.3000,4.60027,2470.53,2022-1-02T11:38:00Z
2022-01-02T09:39:33Z,42.805,6.029,13.3002,4.60025,2470.567,2022-1-02T11:41:03Z
2022-01-02T09:42:36Z,42.805,6.029,13.3002,4.60026,2470.507,2022-1-02T11:44:06Z
2022-01-02T09:45:40Z,42.805,6.029,13.3002,4.60035,2470.544,2022-1-02T11:47:10Z
2022-01-02T09:48:43Z,42.805,6.029,13.3000,4.60025,2470.567,2022-1-02T11:50:13Z
2022-01-02T09:51:46Z,42.805,6.029,13.3000,4.60025,2470.567,2022-1-02T11:53:16Z
2022-01-02T09:54:49Z,42.805,6.029,13.3001,4.60028,2470.544,2022-1-02T11:56:19Z
2022-01-02T09:57:52Z,42.805,6.029,13.3000,4.60026,2470.52,2022-1-02T11:59:22Z
2022-01-02T10:00:55Z,42.805,6.029,13.2999,4.60026,2470.553,2022-1-02T12:02:25Z
2022-01-02T10:03:58Z,42.805,6.029,13.2998,4.60025,2470.53,2022-1-02T12:05:28Z
2022-01-02T10:07:01Z,42.805,6.029,13.3000,4.60025,2470.553,2022-1-02T12:08:31Z
2022-01-02T10:10:05Z,42.805,6.029,13.3000,4.60025,2470.53,2022-1-02T12:11:34Z
2022-01-02T10:13:08Z,42.805,6.029,13.3002,4.60025,2470.544,2022-1-02T12:14:38Z
2022-01-02T10:16:11Z,42.805,6.029,13.3004,4.60026,2470.507,2022-1-02T12:17:41Z
2022-01-02T10:19:14Z,42.805,6.029,13.3002,4.60026,2470.544,2022-1-02T12:20:44Z
2022-01-02T10:22:17Z,42.805,6.029,13.2998,4.60025,2470.53,2022-1-02T12:23:47Z
2022-01-02T10:25:20Z,42.805,6.029,13.3004,4.60024,2470.53,2022-1-02T12:26:50Z
2022-01-02T10:28:23Z,42.805,6.029,13.3003,4.60025,2470.52,2022-1-02T12:29:53Z
2022-01-02T10:31:26Z,42.805,6.029,13.2999,4.60026,2470.507,2022-1-02T12:32:56Z
2022-01-02T10:34:30Z,42.805,6.029,13.3002,4.60026,2470.567,2022-1-02T12:36:00Z
2022-01-02T10:37:33Z,42.805,6.029,13.3001,4.60029,2470.507,2022-1-02T12:39:03Z
2022-01-02T10:40:36Z,42.805,6.029,13.3000,4.60024,2470.53,2022-1-02T12:42:06Z
2022-01-02T10:43:39Z,42.805,6.029,13.3004,4.60034,2470.52,2022-1-02T12:45:09Z
2022-01-02T10:46:42Z,42.805,6.029,13.2999,4.60026,2470.53,2022-1-02T12:48:12Z
2022-01-02T10:49:45Z,42.805,6.029,13.3001,4.60029,2470.53,2022-1-02T12:51:15Z
2022-01-02T10:52:48Z,42.805,6.029,13.2992,4.60024,2470.507,2022-1-02T12:54:18Z
2022-01-02T10:55:51Z,42.805,6.029,13.2998,4.60029,2470.483,2022-1-02T12:57:21Z
2022-01-02T10:58:55Z,42.805,6.029,13.3001,4.60025,2470.52,2022-1-02T13:00:24Z
2022-01-02T11:01:58Z,42.805,6.029,13.3004,4.60026,2470.507,2022-1-02T13:03:28Z
2022-01-02T11:05:01Z,42.805,6.029,13.3004,4.60040,2470.46,2022-1-02T13:06:31Z
2022-01-02T11:08:04Z,42.805,6.029,13.3004,4.60027,2470.507,2022-1-02T13:09:34Z
2022-01-02T11:11:07Z,42.805,6.029,13.3004,4.60026,2470.507,2022-1-02T13:12:37Z
2022-01-02T11:14:10Z,42.805,6.029,13.3003,4.60025,2470.47,2022-1-02T13:15:40Z
2022-01-02T11:17:13Z,42.805,6.029,13.3004,4.60025,2470.497,2022-1-02T13:18:43Z
2022-01-02T11:20:16Z,42.805,6.029,13.3004,4.60026,2470.507,2022-1-02T13:21:46Z
2022-01-02T11:23:19Z,42.805,6.029,13.3000,4.60026,2470.52,2022-1-02T13:24:49Z
2022-01-02T11:26:23Z,42.805,6.029,13.2999,4.60025,2470.497,2022-1-02T13:27:53Z
2022-01-02T11:29:26Z,42.805,6.029,13.3004,4.60026,2470.483,2022-1-02T13:30:56Z
2022-01-02T11:32:29Z,42.805,6.029,13.3002,4.60025,2470.497,2022-1-02T13:33:59Z
2022-01-02T11:35:32Z,42.805,6.029,13.3002,4.60027,2470.483,2022-1-02T13:37:02Z
2022-01-02T11:38:35Z,42.805,6.029,13.3001,4.60026,2470.46,2022-1-02T13:40:05Z
2022-01-02T11:41:38Z,42.805,6.029,13.3000,4.60025,2470.437,2022-1-02T13:43:08Z
2022-01-02T11:44:41Z,42.805,6.029,13.2998,4.60026,2470.46,2022-1-02T13:46:11Z
2022-01-02T11:47:44Z,42.805,6.029,13.3004,4.60025,2470.483,2022-1-02T13:49:14Z
2022-01-02T11:50:48Z,42.805,6.029,13.3000,4.60024,2470.497,2022-1-02T13:52:18Z
2022-01-02T11:53:51Z,42.805,6.029,13.3000,4.60026,2470.437,2022-1-02T13:55:21Z
2022-01-02T11:56:54Z,42.805,6.029,13.2996,4.60025,2470.46,2022-1-02T13:58:24Z
2022-01-02T11:59:57Z,42.805,6.029,13.3004,4.60024,2470.437,2022-1-02T14:01:27Z
2022-01-02T12:03:00Z,42.805,6.029,13.3002,4.60024,2470.46,2022-1-02T14:04:30Z
2022-01-02T12:06:03Z,42.805,6.029,13.3001,4.60024,2470.474,2022-1-02T14:07:33Z
2022-01-02T12:09:06Z,42.805,6.029,13.3003,4.60027,2470.46,2022-1-02T14:10:36Z
2022-01-02T12:12:09Z,42.805,6.029,13.2998,4.60025,2470.413,2022-1-02T14:13:39Z
2022-01-02T12:15:13Z,42.805,6.029,13.3000,4.60024,2470.437,2022-1-02T14:16:43Z
2022-01-02T12:18:16Z,42.805,6.029,13.2998,4.60024,2470.437,2022-1-02T14:19:46Z
2022-01-02T12:21:19Z,42.805,6.029,13.3001,4.60025,2470.427,2022-1-02T14:22:49Z
2022-01-02T12:24:22Z,42.805,6.029,13.2998,4.60027,2470.45,2022-1-02T14:25:52Z
2022-01-02T12:27:25Z,42.805,6.029,13.3002,4.60026,2470.446,2022-1-02T14:28:55Z
2022-01-02T12:30:28Z,42.805,6.029,13.3003,4.60029,2470.413,2022-1-02T14:31:58Z
2022-01-02T12:33:31Z,42.805,6.029,13.2998,4.60025,2470.437,2022-1-02T14:35:01Z
2022-01-02T12:36:34Z,42.805,6.029,13.2999,4.60026,2470.45,2022-1-02T14:38:04Z
2022-01-02T12:39:38Z,42.805,6.029,13.3001,4.60025,2470.39,2022-1-02T14:41:08Z
2022-01-02T12:42:41Z,42.805,6.029,13.3003,4.60024,2470.39,2022-1-02T14:44:11Z
2022-01-02T12:45:44Z,42.805,6.029,13.3002,4.60025,2470.413,2022-1-02T14:47:14Z
2022-01-02T12:48:47Z,42.805,6.029,13.3003,4.60025,2470.413,2022-1-02T14:50:17Z
2022-01-02T12:51:50Z,42.805,6.029,13.2998,4.60024,2470.413,2022-1-02T14:53:20Z
2022-01-02T12:54:53Z,42.805,6.029,13.3004,4.60025,2470.413,2022-1-02T14:56:23Z
2022-01-02T12:57:56Z,42.805,6.029,13.2996,4.60026,2470.427,2022-1-02T14:59:26Z
2022-01-02T13:00:59Z,42.805,6.029,13.2996,4.60027,2470.39,2022-1-02T15:02:29Z
2022-01-02T13:04:03Z,42.805,6.029,13.3000,4.60024,2470.413,2022-1-02T15:05:33Z
2022-01-02T13:07:06Z,42.805,6.029,13.2997,4.60025,2470.413,2022-1-02T15:08:36Z
2022-01-02T13:10:09Z,42.805,6.029,13.2998,4.60024,2470.413,2022-1-02T15:11:39Z
2022-01-02T13:13:12Z,42.805,6.029,13.3001,4.60026,2470.413,2022-1-02T15:14:42Z
2022-01-02T13:16:15Z,42.805,6.029,13.3004,4.60025,2470.39,2022-1-02T15:17:45Z
2022-01-02T13:19:18Z,42.805,6.029,13.3002,4.60026,2470.39,2022-1-02T15:20:48Z
2022-01-02T13:22:21Z,42.805,6.029,13.2998,4.60027,2470.39,2022-1-02T15:23:51Z
2022-01-02T13:25:24Z,42.805,6.029,13.3000,4.60024,2470.39,2022-1-02T15:26:54Z
2022-01-02T13:28:28Z,42.805,6.029,13.2999,4.60028,2470.404,2022-1-02T15:29:58Z
2022-01-02T13:31:31Z,42.805,6.029,13.3000,4.60025,2470.404,2022-1-02T15:33:01Z
2022-01-02T13:34:34Z,42.805,6.029,13.3003,4.60024,2470.413,2022-1-02T15:36:04Z
2022-01-02T13:37:37Z,42.805,6.029,13.3000,4.60024,2470.366,2022-1-02T15:39:07Z
2022-01-02T13:40:40Z,42.805,6.029,13.3004,4.60024,2470.366,2022-1-02T15:42:10Z
2022-01-02T13:43:43Z,42.805,6.029,13.3001,4.60026,2470.39,2022-1-02T15:45:13Z
2022-01-02T13:46:46Z,42.805,6.029,13.3003,4.60024,2470.413,2022-1-02T15:48:16Z
2022-01-02T13:49:49Z,42.805,6.029,13.3000,4.60027,2470.427,2022-1-02T15:51:19Z
2022-01-02T13:52:53Z,42.805,6.029,13.3003,4.60026,2470.39,2022-1-02T15:54:23Z
2022-01-02T13:55:56Z,42.805,6.029,13.3002,4.60026,2470.38,2022-1-02T15:57:26Z
2022-01-02T13:58:59Z,42.805,6.029,13.3003,4.60025,2470.39,2022-1-02T16:00:29Z
2022-01-02T14:02:02Z,42.805,6.029,13.3004,4.60024,2470.366,2022-1-02T16:03:32Z
2022-01-02T14:05:05Z,42.805,6.029,13.2998,4.60025,2470.38,2022-1-02T16:06:35Z
2022-01-02T14:08:08Z,42.805,6.029,13.3002,4.60025,2470.39,2022-1-02T16:09:38Z
2022-01-02T14:11:11Z,42.805,6.029,13.3000,4.60024,2470.366,2022-1-02T16:12:41Z
2022-01-02T14:14:14Z,42.805,6.029,13.3000,4.60026,2470.413,2022-1-02T16:15:44Z
2022-01-02T14:17:18Z,42.805,6.029,13.3000,4.60025,2470.413,2022-1-02T16:18:48Z
2022-01-02T14:20:21Z,42.805,6.029,13.3000,4.60024,2470.38,2022-1-02T16:21:51Z
2022-01-02T14:23:24Z,42.805,6.029,13.3004,4.60026,2470.404,2022-1-02T16:24:54Z
2022-01-02T14:26:27Z,42.805,6.029,13.3004,4.60025,2470.38,2022-1-02T16:27:57Z
2022-01-02T14:29:30Z,42.805,6.029,13.3001,4.60025,2470.404,2022-1-02T16:31:00Z
2022-01-02T14:32:33Z,42.805,6.029,13.2998,4.60025,2470.413,2022-1-02T16:34:03Z
2022-01-02T14:35:36Z,42.805,6.029,13.3004,4.60025,2470.39,2022-1-02T16:37:06Z
2022-01-02T14:38:39Z,42.805,6.029,13.3004,4.60025,2470.39,2022-1-02T16:40:09Z
2022-01-02T14:41:43Z,42.805,6.029,13.3001,4.60026,2470.427,2022-1-02T16:43:12Z
2022-01-02T14:44:46Z,42.805,6.029,13.2999,4.60026,2470.404,2022-1-02T16:46:16Z
2022-01-02T14:47:49Z,42.805,6.029,13.3004,4.60026,2470.413,2022-1-02T16:49:19Z
2022-01-02T14:50:52Z,42.805,6.029,13.3000,4.60026,2470.39,2022-1-02T16:52:22Z
2022-01-02T14:53:55Z,42.805,6.029,13.3000,4.60025,2470.437,2022-1-02T16:55:25Z
2022-01-02T14:56:58Z,42.805,6.029,13.3000,4.60025,2470.38,2022-1-02T16:58:28Z
2022-01-02T15:00:01Z,42.805,6.029,13.3000,4.60026,2470.399,2022-1-02T17:01:31Z
2022-01-02T15:03:04Z,42.805,6.029,13.3002,4.60025,2470.404,2022-1-02T17:04:34Z
2022-01-02T15:06:08Z,42.805,6.029,13.3005,4.60025,2470.427,2022-1-02T17:07:37Z
2022-01-02T15:09:11Z,42.805,6.029,13.3003,4.60026,2470.437,2022-1-02T17:10:41Z
2022-01-02T15:12:14Z,42.805,6.029,13.3001,4.60026,2470.427,2022-1-02T17:13:44Z
2022-01-02T15:15:17Z,42.805,6.029,13.3001,4.60026,2470.45,2022-1-02T17:16:47Z